TimePST,TemperatureF,Dew PointF,Humidity,Sea Level PressureIn,VisibilityMPH,Wind Direction,Wind SpeedMPH,Gust SpeedMPH,PrecipitationIn,Events,Conditions,WindDirDegrees,DateUTC
12:49 AM,51.8,48.2,88,30.17,10.0,SSW,8.1,-,N/A,,Overcast,210,2014-01-08 08:49:00
12:53 AM,52.0,48.9,89,30.13,10.0,SSW,8.1,-,N/A,,Overcast,210,2014-01-08 08:53:00
1:53 AM,53.1,48.9,86,30.14,10.0,SSW,8.1,-,N/A,,Overcast,200,2014-01-08 09:53:00
2:53 AM,54.0,48.9,83,30.14,10.0,South,5.8,-,N/A,,Overcast,190,2014-01-08 10:53:00
3:53 AM,51.1,50.0,96,30.13,10.0,NW,4.6,-,N/A,,Overcast,320,2014-01-08 11:53:00
4:53 AM,52.0,48.9,89,30.13,10.0,WSW,6.9,-,N/A,,Overcast,250,2014-01-08 12:53:00
5:53 AM,52.0,48.9,89,30.17,10.0,West,10.4,-,N/A,,Overcast,270,2014-01-08 13:53:00
6:24 AM,51.8,48.2,88,30.21,10.0,WNW,3.5,-,N/A,,Overcast,290,2014-01-08 14:24:00
6:53 AM,51.1,48.9,92,30.16,10.0,Calm,Calm,-,N/A,,Overcast,0,2014-01-08 14:53:00
7:53 AM,51.1,48.0,89,30.15,10.0,West,3.5,-,0.00,,Overcast,260,2014-01-08 15:53:00
8:53 AM,51.1,48.0,89,30.17,10.0,NNE,3.5,-,N/A,,Overcast,20,2014-01-08 16:53:00
9:41 AM,51.8,48.2,88,30.23,10.0,WNW,6.9,-,N/A,,Overcast,290,2014-01-08 17:41:00
9:53 AM,53.1,48.0,83,30.19,10.0,West,5.8,-,N/A,,Overcast,270,2014-01-08 17:53:00
10:53 AM,54.0,48.0,80,30.18,10.0,NNW,3.5,-,N/A,,Mostly Cloudy,330,2014-01-08 18:53:00
11:40 AM,57.2,46.4,67,30.21,10.0,West,9.2,-,N/A,,Partly Cloudy,280,2014-01-08 19:40:00
11:53 AM,57.9,46.9,67,30.17,10.0,WNW,11.5,-,N/A,,Scattered Clouds,290,2014-01-08 19:53:00
12:53 PM,57.9,46.9,67,30.13,10.0,NW,10.4,-,N/A,,Mostly Cloudy,310,2014-01-08 20:53:00
1:53 PM,57.9,46.0,65,30.10,10.0,NW,6.9,-,N/A,,Clear,310,2014-01-08 21:53:00
2:53 PM,57.9,46.0,65,30.11,10.0,West,11.5,-,N/A,,Mostly Cloudy,260,2014-01-08 22:53:00
3:53 PM,57.9,46.9,67,30.12,10.0,West,9.2,-,N/A,,Mostly Cloudy,270,2014-01-08 23:53:00
4:53 PM,55.9,48.0,75,30.12,10.0,WSW,6.9,-,N/A,,Scattered Clouds,250,2014-01-09 00:53:00
5:53 PM,53.1,48.0,83,30.14,10.0,Calm,Calm,-,N/A,,Clear,0,2014-01-09 01:53:00
6:53 PM,51.1,46.9,86,30.14,10.0,South,5.8,-,N/A,,Clear,180,2014-01-09 02:53:00
7:53 PM,50.0,46.9,89,30.16,10.0,South,5.8,-,N/A,,Clear,180,2014-01-09 03:53:00
8:53 PM,48.9,46.9,93,30.17,10.0,South,9.2,-,N/A,,Clear,170,2014-01-09 04:53:00
9:53 PM,48.0,46.0,93,30.16,10.0,South,4.6,-,N/A,,Clear,180,2014-01-09 05:53:00
10:53 PM,48.9,46.9,93,30.17,9.0,SSW,8.1,-,N/A,,Clear,200,2014-01-09 06:53:00
11:53 PM,48.9,46.9,93,30.17,8.0,SSW,10.4,-,N/A,,Clear,200,2014-01-09 07:53:00